User: anonymous   Login
Location: Caltech
(34.1382°N, 118.1253°W)
Time: 10:11:20
(UTC-07:00)
Language:

Cosmos 1833 - Orbit

View from above orbital plane
View from above orbital plane
View from above satellite
View from above satellite

Ground track
Ground track

The orbit data is extracted from the following two-line orbital elements,

1 17589U 87027A   16182.47713707 -.00000207  00000-0 -85066-4 0  9998
2 17589  70.9125 203.8325 0021183 133.7332 226.5547 14.12852835510620
Epoch (UTC): 30 June 2016 11:27:04
Eccentricity: 0.0021183
inclination: 70.9125°
perigee height: 834 km
apogee height: 865 km
right ascension of ascending node: 203.8325°
argument of perigee: 133.7332°
revolutions per day: 14.12852835
mean anomaly at epoch: 226.5547°
orbit number at epoch: 51062

The dashed part of the orbit path shows where the satellite is in the earth's shadow,  

DLR